Terug naar catalogus

DELTA 1 R/B

ActiefSSO
NORAD 3767·ROCKET BODY·🇺🇸 United States

Gelanceerd Feb 26, 1969 vanaf Cape Canaveral Space Force Station

Loading…

Volgende Passages (komende 24 uur)

TLE

VersSource: Space-Track

Epoch: Sep 14, 2026, 12:32 UTC

1 03767U 69016B   26257.52234316 -.00000020  00000-0  14106-3 0  9991
2 03767 101.3686 267.1858 0049726 160.3153 354.7208 12.51547084628006

Volg DELTA 1 R/B in realtime met AllMySat

Download on the App Store